| time (UTC) | temp F | wind direction | speed MPH | gust MPH | rain 1hr in | rain 24hr in | rain mn in | humidity % | barometer mb |
| 20260505114208 | 40 | 34 | 0.0 | 0.0 | 0.00 | 0.01 | 0.00 | 88 | 999.6 |
| 20260505113646 | 40 | 34 | 0.0 | 0.0 | 0.00 | 0.01 | 0.00 | 87 | 999.6 |
| 20260505113431 | 40 | 34 | 0.0 | 0.0 | 0.00 | 0.01 | 0.00 | 87 | 999.6 |
| 20260505112644 | 39 | 34 | 0.0 | 0.0 | 0.00 | 0.01 | 0.00 | 87 | 999.3 |
| 20260505112145 | 39 | 34 | 0.0 | 0.0 | 0.00 | 0.01 | 0.00 | 87 | 999.3 |
| 20260505111612 | 39 | 34 | 0.0 | 0.0 | 0.00 | 0.01 | 0.00 | 87 | 999.3 |
| 20260505111120 | 39 | 34 | 0.0 | 0.0 | 0.00 | 0.01 | 0.00 | 86 | 999.0 |
| 20260505111107 | 39 | 34 | 0.0 | 0.0 | 0.00 | 0.01 | 0.00 | 86 | 999.0 |
| 20260505101917 | 40 | 34 | 0.0 | 0.0 | 0.00 | 0.01 | 0.00 | 81 | 998.5 |
| 20260505101402 | 40 | 34 | 0.0 | 0.0 | 0.00 | 0.01 | 0.00 | 81 | 998.4 |
| 20260505100856 | 40 | 34 | 0.0 | 0.0 | 0.00 | 0.01 | 0.00 | 80 | 998.5 |
| 20260505100355 | 40 | 34 | 0.0 | 0.0 | 0.00 | 0.01 | 0.00 | 80 | 998.5 |
| 20260505095845 | 41 | 34 | 0.0 | 0.0 | 0.00 | 0.01 | 0.00 | 79 | 998.1 |
| 20260505095344 | 41 | 34 | 0.0 | 0.0 | 0.00 | 0.01 | 0.00 | 79 | 998.1 |
| 20260505094758 | 42 | 34 | 0.0 | 0.0 | 0.00 | 0.01 | 0.00 | 78 | 998.2 |
| 20260505094243 | 42 | 34 | 0.0 | 0.0 | 0.00 | 0.01 | 0.00 | 77 | 998.0 |
| 20260505093745 | 42 | 34 | 0.0 | 0.0 | 0.00 | 0.01 | 0.00 | 77 | 998.0 |
| 20260505093501 | 43 | 34 | 0.0 | 0.0 | 0.00 | 0.01 | 0.00 | 76 | 998.1 |
| 20260505092709 | 43 | 34 | 0.0 | 0.0 | 0.00 | 0.01 | 0.00 | 76 | 997.6 |
| 20260505092154 | 43 | 34 | 0.0 | 0.0 | 0.00 | 0.01 | 0.00 | 75 | 997.6 |
| 20260505091655 | 44 | 34 | 0.0 | 0.0 | 0.00 | 0.01 | 0.00 | 75 | 997.7 |
| 20260505091140 | 44 | 34 | 0.0 | 0.0 | 0.00 | 0.01 | 0.00 | 74 | 997.7 |
| 20260505090633 | 45 | 34 | 0.0 | 2.0 | 0.00 | 0.01 | 0.00 | 74 | 997.7 |
| 20260505090056 | 45 | 34 | 0.0 | 3.0 | 0.00 | 0.01 | 0.00 | 73 | 997.8 |
| 20260505085552 | 45 | 34 | 1.0 | 5.0 | 0.00 | 0.01 | 0.00 | 72 | 997.7 |
| 20260505085040 | 46 | 32 | 0.0 | 5.0 | 0.00 | 0.01 | 0.00 | 72 | 997.7 |
| 20260505084743 | 46 | 85 | 0.0 | 0.0 | 0.00 | 0.01 | 0.00 | 73 | 997.2 |
| 20260505084233 | 47 | 56 | 0.0 | 0.0 | 0.00 | 0.01 | 0.00 | 72 | 997.3 |
| 20260505083449 | 47 | 57 | 0.0 | 3.0 | 0.00 | 0.01 | 0.00 | 72 | 997.3 |
| 20260505082904 | 47 | 57 | 0.0 | 3.0 | 0.00 | 0.01 | 0.00 | 73 | 997.0 |
| 20260505082357 | 48 | 32 | 0.0 | 2.0 | 0.00 | 0.01 | 0.00 | 74 | 997.0 |
| 20260505081852 | 48 | 33 | 1.0 | 4.0 | 0.00 | 0.01 | 0.00 | 74 | 997.0 |
| 20260505081318 | 48 | 107 | 2.0 | 5.0 | 0.00 | 0.01 | 0.00 | 75 | 996.5 |
| 20260505080810 | 49 | 11 | 1.0 | 5.0 | 0.00 | 0.01 | 0.00 | 78 | 996.6 |
| 20260505080313 | 49 | 34 | 1.0 | 4.0 | 0.00 | 0.01 | 0.00 | 82 | 996.6 |
| 20260505075809 | 49 | 63 | 0.0 | 3.0 | 0.00 | 0.01 | 0.00 | 84 | 996.3 |
| 20260505075300 | 49 | 172 | 0.0 | 4.0 | 0.00 | 0.01 | 0.00 | 82 | 996.3 |
| 20260505074754 | 49 | 172 | 0.0 | 4.0 | 0.00 | 0.01 | 0.00 | 80 | 996.3 |
| 20260505074550 | 50 | 9 | 0.0 | 2.0 | 0.00 | 0.01 | 0.00 | 79 | 996.3 |
| 20260505074014 | 51 | 305 | 0.0 | 2.0 | 0.00 | 0.01 | 0.00 | 77 | 996.3 |
| 20260505073202 | 51 | 305 | 0.0 | 2.0 | 0.00 | 0.01 | 0.00 | 75 | 996.5 |
| 20260505072701 | 52 | 355 | 0.0 | 5.0 | 0.00 | 0.01 | 0.00 | 74 | 996.0 |
| 20260505072201 | 53 | 351 | 1.0 | 5.0 | 0.00 | 0.01 | 0.00 | 71 | 996.1 |
| 20260505071647 | 53 | 344 | 1.0 | 4.0 | 0.00 | 0.01 | 0.00 | 68 | 996.1 |
| 20260505071452 | 54 | 332 | 1.0 | 6.0 | 0.00 | 0.01 | 0.00 | 62 | 995.8 |
| 20260505070939 | 54 | 290 | 0.0 | 6.0 | 0.00 | 0.01 | 0.00 | 57 | 995.8 |
| 20260505070452 | 54 | 271 | 0.0 | 2.0 | 0.00 | 0.01 | 0.00 | 58 | 995.8 |
| 20260505065645 | 54 | 271 | 0.0 | 2.0 | 0.00 | 0.01 | 0.00 | 56 | 995.6 |
| 20260505065143 | 55 | 288 | 0.0 | 4.0 | 0.00 | 0.01 | 0.00 | 55 | 995.6 |
| 20260505064620 | 55 | 288 | 1.0 | 4.0 | 0.00 | 0.01 | 0.00 | 55 | 995.6 |
| 20260505064047 | 55 | 274 | 1.0 | 4.0 | 0.00 | 0.01 | 0.00 | 53 | 995.7 |
| 20260505063851 | 56 | 269 | 1.0 | 4.0 | 0.00 | 0.01 | 0.00 | 52 | 995.7 |
| 20260505063039 | 56 | 262 | 1.0 | 6.0 | 0.00 | 0.01 | 0.00 | 51 | 995.7 |
| 20260505062529 | 56 | 250 | 2.0 | 6.0 | 0.00 | 0.01 | 0.00 | 52 | 995.6 |
| 20260505062020 | 56 | 315 | 2.0 | 5.0 | 0.00 | 0.01 | 0.00 | 52 | 995.6 |
| 20260505061519 | 56 | 246 | 2.0 | 7.0 | 0.00 | 0.01 | 0.00 | 52 | 995.6 |
| 20260505061302 | 56 | 266 | 2.0 | 7.0 | 0.00 | 0.01 | 0.00 | 52 | 995.1 |
| 20260505060505 | 56 | 286 | 2.0 | 6.0 | 0.00 | 0.01 | 0.00 | 52 | 995.1 |
| 20260505060006 | 56 | 265 | 2.0 | 11.0 | 0.00 | 0.01 | 0.00 | 52 | 995.1 |
| 20260505055505 | 56 | 282 | 3.0 | 11.0 | 0.00 | 0.01 | 0.00 | 52 | 995.3 |
| 20260505055111 | 57 | 297 | 2.0 | 8.0 | 0.00 | 0.01 | 0.00 | 55 | 995.3 |
| 20260505055053 | 57 | 280 | 3.0 | 8.0 | 0.00 | 0.01 | 0.00 | 53 | 995.3 |
| 20260505054015 | 57 | 264 | 2.0 | 6.0 | 0.00 | 0.01 | 0.00 | 56 | 995.3 |
| 20260505053501 | 57 | 275 | 3.0 | 15.0 | 0.00 | 0.01 | 0.00 | 57 | 995.3 |
| 20260505052957 | 57 | 293 | 3.0 | 15.0 | 0.00 | 0.01 | 0.00 | 58 | 995.2 |
| 20260505052457 | 57 | 264 | 3.0 | 8.0 | 0.00 | 0.01 | 0.00 | 60 | 995.2 |
| 20260505051954 | 57 | 267 | 3.0 | 8.0 | 0.00 | 0.01 | 0.00 | 61 | 995.2 |
| 20260505051413 | 57 | 252 | 3.0 | 7.0 | 0.00 | 0.01 | 0.00 | 62 | 994.8 |
| 20260505050905 | 57 | 232 | 3.0 | 6.0 | 0.00 | 0.01 | 0.00 | 64 | 994.8 |
| 20260505050406 | 57 | 293 | 2.0 | 6.0 | 0.00 | 0.01 | 0.00 | 66 | 994.8 |
| 20260505041606 | 58 | 248 | 2.0 | 7.0 | 0.00 | 0.01 | 0.00 | 69 | 995.2 |
| 20260505040758 | 58 | 266 | 2.0 | 7.0 | 0.01 | 0.01 | 0.00 | 69 | 995.2 |
| 20260505040256 | 58 | 229 | 2.0 | 5.0 | 0.01 | 0.01 | 0.00 | 70 | 995.2 |
| 20260505035753 | 57 | 277 | 2.0 | 7.0 | 0.01 | 0.01 | 0.01 | 71 | 995.1 |
| 20260505035252 | 57 | 255 | 2.0 | 7.0 | 0.01 | 0.01 | 0.01 | 71 | 995.1 |
| 20260505035056 | 57 | 292 | 2.0 | 5.0 | 0.01 | 0.01 | 0.01 | 72 | 995.1 |
| 20260505034246 | 58 | 259 | 1.0 | 4.0 | 0.01 | 0.01 | 0.01 | 72 | 994.9 |
| 20260505033751 | 58 | 271 | 1.0 | 6.0 | 0.01 | 0.01 | 0.01 | 73 | 994.9 |
| 20260505033231 | 58 | 284 | 2.0 | 6.0 | 0.01 | 0.01 | 0.01 | 73 | 994.9 |
| 20260505032710 | 58 | 261 | 3.0 | 6.0 | 0.01 | 0.01 | 0.01 | 72 | 994.3 |
| 20260505032213 | 58 | 270 | 3.0 | 6.0 | 0.01 | 0.01 | 0.01 | 73 | 994.3 |
| 20260505031704 | 58 | 232 | 1.0 | 6.0 | 0.01 | 0.01 | 0.01 | 72 | 994.4 |
| 20260505031207 | 59 | 259 | 0.0 | 2.0 | 0.01 | 0.01 | 0.01 | 71 | 994.5 |
| 20260505030647 | 59 | 245 | 0.0 | 2.0 | 0.00 | 0.00 | 0.00 | 65 | 994.5 |
| 20260505030149 | 59 | 245 | 0.0 | 1.0 | 0.00 | 0.00 | 0.00 | 65 | 994.5 |
| 20260505025641 | 59 | 245 | 0.0 | 0.0 | 0.00 | 0.00 | 0.00 | 65 | 994.3 |
| 20260505025142 | 60 | 245 | 0.0 | 2.0 | 0.00 | 0.00 | 0.00 | 64 | 994.3 |
| 20260505024602 | 60 | 245 | 1.0 | 2.0 | 0.00 | 0.00 | 0.00 | 63 | 994.3 |
| 20260505024104 | 60 | 242 | 1.0 | 2.0 | 0.00 | 0.00 | 0.00 | 63 | 994.1 |
| 20260505023552 | 60 | 241 | 0.0 | 2.0 | 0.00 | 0.00 | 0.00 | 61 | 994.1 |
| 20260505023051 | 60 | 241 | 0.0 | 2.0 | 0.00 | 0.00 | 0.00 | 61 | 994.1 |
| 20260505022842 | 61 | 241 | 0.0 | 1.0 | 0.00 | 0.00 | 0.00 | 60 | 994.0 |
| 20260505022053 | 61 | 241 | 0.0 | 1.0 | 0.00 | 0.00 | 0.00 | 59 | 994.1 |
| 20260505021548 | 62 | 241 | 1.0 | 3.0 | 0.00 | 0.00 | 0.00 | 58 | 994.1 |
| 20260505021048 | 62 | 241 | 2.0 | 5.0 | 0.00 | 0.00 | 0.00 | 57 | 994.1 |
| 20260505020832 | 62 | 226 | 1.0 | 6.0 | 0.00 | 0.00 | 0.00 | 57 | 994.1 |
| 20260505020040 | 62 | 188 | 1.0 | 6.0 | 0.00 | 0.00 | 0.00 | 56 | 994.1 |
| 20260505015541 | 63 | 236 | 1.0 | 2.0 | 0.00 | 0.00 | 0.00 | 55 | 994.0 |
| 20260505015039 | 63 | 236 | 1.0 | 4.0 | 0.00 | 0.00 | 0.00 | 55 | 994.0 |
| 20260505014817 | 64 | 236 | 2.0 | 6.0 | 0.00 | 0.00 | 0.00 | 54 | 994.0 |
| 20260505014012 | 64 | 254 | 1.0 | 6.0 | 0.00 | 0.00 | 0.00 | 54 | 993.8 |
| 20260505013517 | 64 | 225 | 2.0 | 5.0 | 0.00 | 0.00 | 0.00 | 54 | 993.8 |
| 20260505012959 | 64 | 225 | 2.0 | 5.0 | 0.00 | 0.00 | 0.00 | 53 | 993.7 |
| 20260505012457 | 65 | 268 | 2.0 | 5.0 | 0.00 | 0.00 | 0.00 | 52 | 993.7 |
| 20260505011958 | 65 | 311 | 2.0 | 5.0 | 0.00 | 0.00 | 0.00 | 51 | 993.7 |
| 20260505011455 | 66 | 249 | 3.0 | 10.0 | 0.00 | 0.00 | 0.00 | 49 | 994.3 |
| 20260505011302 | 66 | 250 | 4.0 | 11.0 | 0.00 | 0.00 | 0.00 | 49 | 994.4 |
| 20260505010454 | 67 | 21 | 3.0 | 12.0 | 0.00 | 0.00 | 0.00 | 47 | 994.4 |
| 20260505005956 | 67 | 284 | 2.0 | 12.0 | 0.00 | 0.00 | 0.00 | 46 | 993.9 |
| 20260505005455 | 68 | 355 | 2.0 | 6.0 | 0.00 | 0.00 | 0.00 | 44 | 993.9 |
| 20260505004951 | 69 | 321 | 3.0 | 10.0 | 0.00 | 0.00 | 0.00 | 41 | 993.9 |
| 20260505004450 | 69 | 302 | 2.0 | 10.0 | 0.00 | 0.00 | 0.00 | 39 | 992.8 |
| 20260505003950 | 70 | 292 | 2.0 | 5.0 | 0.00 | 0.00 | 0.00 | 37 | 992.8 |
| 20260505003448 | 70 | 276 | 2.0 | 5.0 | 0.00 | 0.00 | 0.00 | 37 | 992.8 |
| 20260505003433 | 70 | 238 | 3.0 | 5.0 | 0.00 | 0.00 | 0.00 | 37 | 992.5 |
| 20260505002829 | 70 | 238 | 4.0 | 10.0 | 0.00 | 0.00 | 0.00 | 36 | 992.6 |
| 20260505001409 | 70 | 222 | 3.0 | 10.0 | 0.00 | 0.00 | 0.00 | 36 | 992.6 |
| 20260505000909 | 70 | 162 | 4.0 | 12.0 | 0.00 | 0.00 | 0.00 | 36 | 992.6 |
| 20260505000530 | 71 | 217 | 6.0 | 15.0 | 0.00 | 0.00 | 0.00 | 35 | 992.6 |
| 20260505000456 | 71 | 233 | 4.0 | 15.0 | 0.00 | 0.00 | 0.00 | 35 | 992.6 |
| 20260504235409 | 71 | 184 | 5.0 | 13.0 | 0.00 | 0.00 | 0.00 | 35 | 992.6 |
| 20260504235023 | 71 | 198 | 6.0 | 13.0 | 0.00 | 0.00 | 0.00 | 35 | 993.2 |
| 20260504234949 | 71 | 237 | 4.0 | 11.0 | 0.00 | 0.00 | 0.00 | 35 | 992.6 |
| 20260504233858 | 72 | 204 | 6.0 | 13.0 | 0.00 | 0.00 | 0.00 | 34 | 993.3 |
| 20260504233359 | 72 | 190 | 6.0 | 12.0 | 0.00 | 0.00 | 0.00 | 34 | 993.3 |
| 20260504232858 | 72 | 248 | 6.0 | 11.0 | 0.00 | 0.00 | 0.00 | 34 | 993.5 |
| 20260504232358 | 72 | 225 | 6.0 | 12.0 | 0.00 | 0.00 | 0.00 | 34 | 993.5 |
| 20260504231859 | 72 | 274 | 5.0 | 12.0 | 0.00 | 0.00 | 0.00 | 35 | 993.5 |
| 20260504231358 | 71 | 223 | 6.0 | 13.0 | 0.00 | 0.00 | 0.00 | 34 | 993.8 |
| 20260504230859 | 72 | 215 | 6.0 | 19.0 | 0.00 | 0.00 | 0.00 | 34 | 993.8 |
| 20260504230358 | 72 | 249 | 7.0 | 19.0 | 0.00 | 0.00 | 0.00 | 35 | 993.9 |
| 20260504225859 | 72 | 226 | 7.0 | 14.0 | 0.00 | 0.00 | 0.00 | 34 | 994.1 |
| 20260504225359 | 72 | 211 | 5.0 | 18.0 | 0.00 | 0.00 | 0.00 | 33 | 994.1 |
| 20260504224857 | 72 | 201 | 5.0 | 18.0 | 0.00 | 0.00 | 0.00 | 34 | 994.1 |
| 20260504224354 | 72 | 273 | 7.0 | 15.0 | 0.00 | 0.00 | 0.00 | 35 | 994.3 |
| 20260504223838 | 72 | 234 | 6.0 | 15.0 | 0.00 | 0.00 | 0.00 | 34 | 994.3 |
| 20260504223339 | 72 | 220 | 7.0 | 16.0 | 0.00 | 0.00 | 0.00 | 34 | 994.3 |
| 20260504222814 | 72 | 194 | 8.0 | 16.0 | 0.00 | 0.00 | 0.00 | 33 | 994.3 |
| 20260504222308 | 72 | 214 | 10.0 | 20.0 | 0.00 | 0.00 | 0.00 | 34 | 994.3 |
| 20260504221807 | 72 | 158 | 11.0 | 20.0 | 0.00 | 0.00 | 0.00 | 33 | 994.3 |
| 20260504221307 | 72 | 245 | 9.0 | 20.0 | 0.00 | 0.00 | 0.00 | 33 | 994.5 |
| 20260504220808 | 72 | 192 | 8.0 | 21.0 | 0.00 | 0.00 | 0.00 | 33 | 994.5 |
| 20260504220307 | 72 | 221 | 8.0 | 21.0 | 0.00 | 0.00 | 0.00 | 33 | 994.5 |
| 20260504215808 | 72 | 227 | 9.0 | 21.0 | 0.00 | 0.00 | 0.00 | 34 | 994.6 |
| 20260504215419 | 72 | 203 | 9.0 | 24.0 | 0.00 | 0.00 | 0.00 | 32 | 994.6 |
| 20260504215353 | 72 | 219 | 9.0 | 24.0 | 0.00 | 0.00 | 0.00 | 34 | 994.6 |
| 20260504214302 | 72 | 212 | 9.0 | 20.0 | 0.00 | 0.00 | 0.00 | 33 | 994.9 |
| 20260504213803 | 72 | 242 | 9.0 | 20.0 | 0.00 | 0.00 | 0.00 | 32 | 994.9 |
| 20260504213302 | 72 | 212 | 7.0 | 20.0 | 0.00 | 0.00 | 0.00 | 32 | 994.9 |
| 20260504212800 | 73 | 219 | 6.0 | 19.0 | 0.00 | 0.00 | 0.00 | 32 | 995.0 |
| 20260504212315 | 73 | 257 | 6.0 | 12.0 | 0.00 | 0.00 | 0.00 | 33 | 995.0 |
| 20260504212109 | 73 | 269 | 7.0 | 18.0 | 0.00 | 0.00 | 0.00 | 32 | 995.0 |
| 20260504211301 | 72 | 333 | 9.0 | 18.0 | 0.00 | 0.00 | 0.00 | 31 | 995.0 |
| 20260504210759 | 72 | 243 | 9.0 | 21.0 | 0.00 | 0.00 | 0.00 | 31 | 995.0 |
| 20260504210257 | 72 | 169 | 8.0 | 21.0 | 0.00 | 0.00 | 0.00 | 30 | 995.0 |
| 20260504205755 | 72 | 194 | 8.0 | 19.0 | 0.00 | 0.00 | 0.00 | 31 | 995.4 |
| 20260504205255 | 72 | 222 | 9.0 | 23.0 | 0.00 | 0.00 | 0.00 | 29 | 995.4 |
| 20260504204752 | 72 | 244 | 8.0 | 23.0 | 0.00 | 0.00 | 0.00 | 31 | 995.4 |
| 20260504204251 | 72 | 207 | 9.0 | 23.0 | 0.00 | 0.00 | 0.00 | 28 | 995.3 |
| 20260504203755 | 72 | 189 | 8.0 | 23.0 | 0.00 | 0.00 | 0.00 | 30 | 995.3 |
| 20260504203251 | 72 | 233 | 7.0 | 15.0 | 0.00 | 0.00 | 0.00 | 29 | 995.3 |
| 20260504202752 | 73 | 211 | 8.0 | 19.0 | 0.00 | 0.00 | 0.00 | 28 | 995.5 |
| 20260504202603 | 73 | 209 | 9.0 | 19.0 | 0.00 | 0.00 | 0.00 | 28 | 995.5 |
| 20260504202053 | 72 | 198 | 11.0 | 20.0 | 0.00 | 0.00 | 0.00 | 28 | 995.5 |
| 20260504201251 | 73 | 235 | 10.0 | 23.0 | 0.00 | 0.00 | 0.00 | 27 | 995.6 |
| 20260504200750 | 73 | 221 | 8.0 | 23.0 | 0.00 | 0.00 | 0.00 | 27 | 995.6 |
| 20260504200247 | 73 | 236 | 9.0 | 20.0 | 0.00 | 0.00 | 0.00 | 27 | 995.6 |
| 20260504195748 | 73 | 244 | 9.0 | 23.0 | 0.00 | 0.00 | 0.00 | 27 | 995.5 |
| 20260504195247 | 73 | 234 | 8.0 | 23.0 | 0.00 | 0.00 | 0.00 | 26 | 995.6 |
| 20260504194745 | 74 | 219 | 8.0 | 17.0 | 0.00 | 0.00 | 0.00 | 26 | 995.6 |
| 20260504194245 | 73 | 229 | 8.0 | 16.0 | 0.00 | 0.00 | 0.00 | 26 | 995.9 |
| 20260504193744 | 74 | 174 | 7.0 | 16.0 | 0.00 | 0.00 | 0.00 | 27 | 995.9 |
| 20260504193245 | 73 | 285 | 8.0 | 18.0 | 0.00 | 0.00 | 0.00 | 26 | 995.9 |
| 20260504192732 | 73 | 245 | 9.0 | 22.0 | 0.00 | 0.00 | 0.00 | 26 | 995.9 |
| 20260504192215 | 73 | 255 | 9.0 | 22.0 | 0.00 | 0.00 | 0.00 | 25 | 995.9 |
| 20260504191714 | 73 | 236 | 8.0 | 20.0 | 0.00 | 0.00 | 0.00 | 26 | 995.9 |
| 20260504191332 | 73 | 257 | 9.0 | 24.0 | 0.00 | 0.00 | 0.00 | 25 | 996.0 |
| 20260504191305 | 73 | 184 | 8.0 | 19.0 | 0.00 | 0.00 | 0.00 | 25 | 996.0 |
| 20260504190212 | 73 | 269 | 10.0 | 24.0 | 0.00 | 0.00 | 0.00 | 26 | 996.0 |
| 20260504185712 | 73 | 292 | 8.0 | 18.0 | 0.00 | 0.00 | 0.00 | 26 | 996.1 |
| 20260504185519 | 74 | 220 | 8.0 | 24.0 | 0.00 | 0.00 | 0.00 | 26 | 996.2 |
| 20260504184712 | 74 | 262 | 8.0 | 24.0 | 0.00 | 0.00 | 0.00 | 27 | 996.2 |
| 20260504184210 | 73 | 221 | 9.0 | 22.0 | 0.00 | 0.00 | 0.00 | 29 | 996.2 |
| 20260504183831 | 73 | 163 | 10.0 | 20.0 | 0.00 | 0.00 | 0.00 | 27 | 996.1 |
| 20260504183802 | 73 | 216 | 9.0 | 19.0 | 0.00 | 0.00 | 0.00 | 26 | 996.1 |
| 20260504182707 | 73 | 223 | 9.0 | 20.0 | 0.00 | 0.00 | 0.00 | 25 | 996.1 |
| 20260504182206 | 73 | 247 | 8.0 | 19.0 | 0.00 | 0.00 | 0.00 | 27 | 996.2 |
| 20260504181706 | 73 | 194 | 8.0 | 28.0 | 0.00 | 0.00 | 0.00 | 27 | 996.1 |
| 20260504181205 | 73 | 167 | 10.0 | 28.0 | 0.00 | 0.00 | 0.00 | 26 | 996.2 |
| 20260504180702 | 72 | 188 | 10.0 | 21.0 | 0.00 | 0.00 | 0.00 | 26 | 996.2 |
| 20260504180201 | 72 | 229 | 11.0 | 22.0 | 0.00 | 0.00 | 0.00 | 26 | 996.2 |
| 20260504175702 | 72 | 248 | 10.0 | 22.0 | 0.00 | 0.00 | 0.00 | 25 | 996.8 |
| 20260504175520 | 72 | 329 | 10.0 | 21.0 | 0.00 | 0.00 | 0.00 | 26 | 996.9 |
| 20260504174704 | 72 | 344 | 10.0 | 21.0 | 0.00 | 0.00 | 0.00 | 26 | 996.9 |
| 20260504174202 | 72 | 231 | 9.0 | 21.0 | 0.00 | 0.00 | 0.00 | 28 | 996.5 |
| 20260504173659 | 72 | 265 | 10.0 | 30.0 | 0.00 | 0.00 | 0.00 | 29 | 996.3 |
| 20260504173200 | 71 | 281 | 9.0 | 30.0 | 0.00 | 0.00 | 0.00 | 28 | 996.3 |
| 20260504172659 | 71 | 217 | 10.0 | 19.0 | 0.00 | 0.00 | 0.00 | 29 | 996.7 |
| 20260504172506 | 71 | 221 | 10.0 | 21.0 | 0.00 | 0.00 | 0.00 | 29 | 996.7 |
| 20260504171655 | 71 | 253 | 10.0 | 21.0 | 0.00 | 0.00 | 0.00 | 29 | 996.7 |
| 20260504171324 | 71 | 184 | 9.0 | 18.0 | 0.00 | 0.00 | 0.00 | 31 | 996.9 |
| 20260504171246 | 71 | 240 | 10.0 | 18.0 | 0.00 | 0.00 | 0.00 | 30 | 996.9 |
| 20260504170154 | 71 | 297 | 8.0 | 18.0 | 0.00 | 0.00 | 0.00 | 32 | 996.9 |
| 20260504160125 | 69 | 236 | 8.0 | 18.0 | 0.00 | 0.00 | 0.00 | 35 | 997.5 |
| 20260504151102 | 67 | 220 | 7.0 | 18.0 | 0.00 | 0.00 | 0.00 | 41 | 998.2 |
| 20260504150603 | 66 | 219 | 6.0 | 18.0 | 0.00 | 0.00 | 0.00 | 43 | 998.1 |
| 20260504150117 | 66 | 194 | 6.0 | 14.0 | 0.00 | 0.00 | 0.00 | 45 | 998.1 |
| 20260504141054 | 62 | 202 | 5.0 | 11.0 | 0.00 | 0.00 | 0.00 | 55 | 998.5 |
| 20260504140554 | 61 | 212 | 4.0 | 11.0 | 0.00 | 0.00 | 0.00 | 55 | 998.5 |
| 20260504140217 | 60 | 169 | 4.0 | 8.0 | 0.00 | 0.00 | 0.00 | 59 | 998.7 |
| 20260504140143 | 61 | 180 | 4.0 | 8.0 | 0.00 | 0.00 | 0.00 | 58 | 998.4 |
| 20260504130806 | 54 | 217 | 4.0 | 11.0 | 0.00 | 0.00 | 0.00 | 73 | 998.7 |
| 20260504130311 | 54 | 217 | 4.0 | 9.0 | 0.00 | 0.00 | 0.00 | 76 | 998.7 |